Buffalo, SD

3:53 AM MST on February 07, 2016 (GMT -0700)
Buffalo

Weather History for K2WX - September, 2013

Change the Weather History Date:

Friday, September 20, 2013

  Actual Average Record
Temperature  
Mean Temperature 55 °F 56 °F  
Max Temperature 71 °F 70 °F 87 °F (2005)
Min Temperature 39 °F 42 °F 34 °F (1997)
Degree Days  
Heating Degree Days 10 9  
Month to date heating degree days 38 120  
Since 1 July heating degree days 50 172  
Cooling Degree Days 0 1  
Month to date cooling degree days 96 40  
Year to date cooling degree days 583 511  
Growing Degree Days 4 (Base 50)    
Moisture  
Dew Point 37 °F    
Average Humidity 59    
Maximum Humidity 92    
Minimum Humidity 26    
Precipitation  
Precipitation 0.00 in 0.04 in 0.19 in (2004)
Month to date precipitation 1.84 0.84  
Year to date precipitation 11.32 12.98  
Sea Level Pressure  
Sea Level Pressure 30.00 in    
Wind  
Wind Speed 7 mph (WNW)    
Max Wind Speed 13 mph    
Max Gust Speed 18 mph    
T = Trace of Precipitation, MM = Missing Value Source: NWS Daily Summary

Daily Weather History Graph

Daily Weather History Graph

Search for Another Location

Airport or City:

Trip Planner

Search our weather history database for the weather conditions in past years. The results will help you decide how hot, cold, wet, or windy it might be!

Date:

Astronomy

Sep. 20, 2013 Rise Set
Actual Time 6:38 AM MDT 6:54 PM MDT
Civil Twilight 6:09 AM MDT 7:24 PM MDT
Nautical Twilight 5:34 AM MDT 7:59 PM MDT
Astronomical Twilight 4:58 AM MDT 8:35 PM MDT
Moon 7:22 PM MDT (9/20) 8:02 AM MDT (9/20)
Length of Visible Light 13h 15m
Length of Day
12h 15m
Full, 98% of the Moon is Illuminated
Sep 20
Full
Sep 26
Last Quarter
Oct 4
New
Oct 11
First Quarter
Oct 18
Full

Hourly Weather History & Observations

Time (MDT) Temp. Windchill Dew Point Humidity Pressure Visibility Wind Dir Wind Speed Gust Speed Precip Events Conditions
12:56 AM 41.0 °F 36.4 °F 37.0 °F 86% 30.09 in - West 6.9 mph - N/A   Unknown
1:56 AM 39.9 °F 34.5 °F 37.0 °F 89% 30.09 in - West 8.1 mph - N/A   Unknown
2:56 AM 41.0 °F 36.4 °F 37.0 °F 86% 30.09 in - West 6.9 mph - N/A   Unknown
3:56 AM 41.0 °F 35.8 °F 37.0 °F 86% 30.08 in - West 8.1 mph - N/A   Unknown
4:56 AM 39.0 °F 33.4 °F 36.0 °F 89% 30.09 in - WNW 8.1 mph - N/A   Unknown
5:56 AM 39.0 °F 34.0 °F 36.0 °F 89% 30.09 in - WNW 6.9 mph - N/A   Unknown
6:56 AM 39.0 °F 34.0 °F 36.0 °F 89% 30.08 in - West 6.9 mph - N/A   Unknown
7:56 AM 42.1 °F 40.2 °F 37.9 °F 85% 30.08 in - West 3.5 mph - N/A   Unknown
8:56 AM 50.0 °F - 41.0 °F 71% 30.08 in - West 4.6 mph - N/A   Unknown
9:56 AM 57.9 °F - 39.9 °F 51% 30.06 in - NW 4.6 mph - N/A   Unknown
10:56 AM 61.0 °F - 36.0 °F 39% 30.04 in - West 8.1 mph - N/A   Unknown
11:56 AM 63.0 °F - 37.0 °F 38% 30.02 in - West 10.4 mph - N/A   Unknown
12:56 PM 66.0 °F - 36.0 °F 33% 29.99 in - NNW 9.2 mph - N/A   Unknown
1:56 PM 66.9 °F - 37.0 °F 33% 29.98 in - Variable 5.8 mph - N/A   Unknown
2:56 PM 69.1 °F - 36.0 °F 30% 29.95 in - West 4.6 mph - N/A   Unknown
3:56 PM 69.1 °F - 34.0 °F 27% 29.94 in - Calm Calm - N/A   Unknown
4:56 PM 69.1 °F - 35.1 °F 29% 29.92 in - NNE 6.9 mph - N/A   Unknown
5:56 PM 66.9 °F - 36.0 °F 32% 29.91 in - ENE 6.9 mph - N/A   Unknown
6:56 PM 60.1 °F - 37.9 °F 44% 29.91 in - ENE 9.2 mph - N/A   Unknown
7:56 PM 57.0 °F - 37.0 °F 47% 29.92 in - East 11.5 mph - N/A   Unknown
8:56 PM 53.1 °F - 37.9 °F 57% 29.91 in - East 11.5 mph - N/A   Unknown
9:56 PM 52.0 °F - 37.9 °F 59% 29.89 in - East 10.4 mph - N/A   Unknown
10:56 PM 51.1 °F - 37.0 °F 59% 29.88 in - ESE 10.4 mph - N/A   Unknown
11:56 PM 50.0 °F - 37.0 °F 61% 29.87 in - SSE 4.6 mph - N/A   Unknown